Regional Weather Roundup
Issued by NWS

Home | Current Version | Previous Version | Graphics & Text | Print | Product List | Glossary On
Versions: 1 2 3 4 5 6 7 8 9 10 11 12 13 14 15 16 17 18 19 20 21 22 23 24 25 26 27 28 29 30 31 32 33 34 35 36 37 38 39 40 41 42 43 44 45 46 47 48 49 50
515
ASUS43 KMKX 011111
RWRWI

WISCONSIN REGIONAL WEATHER ROUNDUP
NATIONAL WEATHER SERVICE MILWAUKEE/SULLIVAN WI
600 AM CDT SAT OCT 01 2016

NOTE: "FAIR" INDICATES FEW OR NO CLOUDS BELOW 12,000 FEET WITH NO
SIGNIFICANT WEATHER AND/OR OBSTRUCTIONS TO VISIBILITY.

WIZ001-002-006>008-014>016-023>028-011200-
NORTHWEST WISCONSIN

CITY           SKY/WX    TMP DP  RH WIND       PRES   REMARKS
SUPERIOR ARPT  CLOUDY    52  52 100 NE5       30.24S FOG
ASHLAND        FOG       54  54 100 VRB7      30.23S VSB 1/4
HAYWARD        CLOUDY    47  46  97 NE3       30.22R
SIREN          CLOUDY    51  50  98 NE6       30.21S FOG
CUMBERLAND     MOCLDY    48  46  93 NE6       30.20S
RICE LAKE      PTCLDY    50  49  95 CALM      30.21R
CHETEK         NOT AVBL
LADYSMITH      PTCLDY    51  49  95 CALM      30.21R
EAU CLAIRE     CLEAR     52  51  97 N3        30.17R
MENOMONIE      CLEAR     53  51  93 N6        30.18S
NEW RICHMOND   CLEAR     49  49 100 CALM      30.18S
OSCEOLA        CLEAR     50  50 100 CALM      30.21S
$$

WIZ003>005-009-010-017-018-011200-
NORTH CENTRAL WISCONSIN

CITY           SKY/WX    TMP DP  RH WIND       PRES   REMARKS
MANITOWISH WTR NOT AVBL
ARBOR VITAE    CLOUDY    54  51  89 CALM      30.20S
WOODRUFF       CLOUDY    54  51  89 CALM      30.20S
RHINELANDER    CLOUDY    53  51  93 NE5       30.20S
EAGLE RIVER    CLOUDY    51  50  97 CALM      30.20S
LAND O LAKES   CLOUDY    52  49  89 NE3       30.22F
PHILLIPS       CLOUDY    51  50  95 NE3       30.20R
TOMAHAWK       CLOUDY    50  48  93 CALM      30.19F
MEDFORD        CLOUDY    49  48  97 NE3       30.18S
MERRILL        CLOUDY    51  51  99 NE3       30.19S
$$

WIZ029-030-035-036-043>047-011200-
CENTRAL WISCONSIN

CITY           SKY/WX    TMP DP  RH WIND       PRES   REMARKS
WAUSAU         LGT RAIN  54  52  93 N5        30.15F
MOSINEE        NOT AVBL
MARSHFIELD     CLOUDY    55  51  86 NE8       30.15S
STEVENS POINT  CLOUDY    55  55  99 NE7       30.15S
WAUPACA        CLOUDY    59  58  97 N3        30.13S
WAUTOMA        CLOUDY    58  57  97 NE9       30.12F
WISC RAPIDS    LGT RAIN  58  56  93 NE8       30.15S
CAMP DOUGLAS   CLOUDY    57  56  97 N5        30.12S
$$

WIZ011>013-019>022-031-037>040-048>050-011200-
NORTHEAST WISCONSIN

CITY           SKY/WX    TMP DP  RH WIND       PRES   REMARKS
ANTIGO         LGT RAIN  54  53  97 E7        30.18S
SHAWANO        CLOUDY    59  56  92 N9        30.14F
OCONTO         NOT AVBL
STURGEON BAY   CLOUDY    61  56  83 NE6       30.14F
GREEN BAY      CLOUDY    60  58  92 NE8       30.12F
MANITOWOC      LGT RAIN  58  56  93 MISG      30.11F
APPLETON       CLOUDY    57  57 100 VRB6      30.11S
CLINTONVILLE   CLOUDY    55  55 100 N6        30.14S
OSHKOSH        CLOUDY    59  57  93 NE9       30.10F
$$

WIZ032>034-041-042-053>061-011200-
SOUTHWEST WISCONSIN

CITY           SKY/WX    TMP DP  RH WIND       PRES   REMARKS
LA CROSSE      CLOUDY    62  55  77 N3        30.12S
SPARTA         CLOUDY    56  55  95 CALM      30.13F
VIROQUA        CLOUDY    56  56 100 NE8       30.12S
BOSCOBEL       CLOUDY    60  58  92 CALM      30.09F
PRAIRIE DU CHI CLOUDY    59  56  90 CALM      30.09S
PLATTEVILLE    CLOUDY    59  59 100 N7        30.07F
$$

WIZ056-057-062-063-064-067-068-011200-
SOUTH CENTRAL WISCONSIN

CITY           SKY/WX    TMP DP  RH WIND       PRES   REMARKS
REEDSBURG      NOT AVBL
BARABOO/DELLS  CLOUDY    58  57  96 NE8       30.09F FOG
LONE ROCK      CLOUDY    60  58  92 N9        30.09S FOG
MINERAL POINT  CLOUDY    59  59 100 N6        30.08S
MADISON        DRIZZLE   59  58  96 NE8       30.07S
MIDDLETON      CLOUDY    60  60 100 NE7       30.08S
WATERTOWN      LGT RAIN  59  59 100 CALM      30.06F
MONROE         CLOUDY    59  57  94 N8        30.05F
JANESVILLE     CLOUDY    59  59 100 CALM      30.04F
$$

WIZ051-052-058>065-066-070>072-011200-
SOUTHEAST WISCONSIN

CITY           SKY/WX    TMP DP  RH WIND       PRES   REMARKS
MILWAUKEE      CLOUDY    60  58  92 N6        30.06S
WAUKESHA       CLOUDY    57  57 100 CALM      30.08R
MILWAUKEE/TIMM LGT RAIN  59  55  88 NE5       30.07F
RACINE         CLOUDY    60  58  92 NE3       30.06F
BURLINGTON     CLOUDY    56  56  99 CALM      30.05R
KENOSHA        CLOUDY    60  58  92 NE5       30.05S
FOND DU LAC    CLOUDY    59  57  93 E8        30.09F
SHEBOYGAN      CLOUDY    59  56  89 NE9       30.09F
WEST BEND      DRIZZLE   68  68 100 NE8       30.08S
JUNEAU         CLOUDY    58  57  97 NE6       30.09S
$$

LSZ147-162-011200-
LAKE SUPERIOR

STATION/POSITION TIME  TEMP    WIND        PRES    WAVE
                       AIR SEA DIR/SP/G            HT/PER
                 (UTC) (F)     (DEG/KT/KT) (MB)    (FT/S)
W MID LAKE BUOY  1050   57 56   30/  8/ 10 1023.3F   1/ 4
DEVILS ISLAND    1100   54      30/ 10/ 11 1023.9F
SAXON HARBOR     1040   51     180/  3/  5 1023.0F
$$

LMZ867-665-643>646-011200-
LAKE MICHIGAN

STATION/POSITION TIME  TEMP    WIND        PRES    WAVE
                       AIR SEA DIR/SP/G            HT/PER
                 (UTC) (F)     (DEG/KT/KT) (MB)    (FT/S)
CHAMBERS ISLAND  1000   62      30/ 11/ 13 1020.7F
S GREEN BAY BUOY 1100   62 62   50/ 12/ 14 1019.8F
N MID LAKE BUOY  1050   63 64   90/ 16/ 19 1020.5F   4/ 5
NORTHPORT PIER   1000   63      70/ 13/ 15 1021.0F
SISTER BAY       0908   62     120/  8/ 10   N/A
KEWAUNEE LAKESHO 1000   61      80/ 11/ 15 1019.7F
SHEBOYGAN LAKESH 1100   60      40/ 11/ 12 1018.6F
PORT WASHINGTON  1040   60      50/ 12/ 16 1019.3F
ATWATER BUOY     1100   60 57   20/  6/ 10 1017.7F
MILWAUKEE LAKESH 1010   59     350/  4/  5   N/A
S MID LAKE BUOY  1050   63 67   60/ 14/ 14 1016.5F   3/ 6
KENOSHA   LAKESH 1100   62      30/  7/  8 1017.3S
$$

TC  - TEMPERATURE IN CELSIUS
VSB - VISIBILITY IN STATUTE MILES
WCI - WIND CHILL INDEX
HX  - HEAT INDEX





USA.gov is the U.S. government's official web portal to all federal, state and local government web resources and services.